Ohio State University, OH

5:04 PM EDT on April 25, 2018 (GMT -0400)
Ohio State University

Weather History for KOSU - December, 2013

Change the Weather History Date:

Friday, December 6, 2013

  Actual Average Record
Temperature  
Mean Temperature 30 °F -  
Max Temperature 33 °F 42 °F 71 °F (1998)
Min Temperature 26 °F 29 °F 6 °F (2007)
Degree Days  
Heating Degree Days 36    
Moisture  
Dew Point 26 °F    
Average Humidity 91    
Maximum Humidity 100    
Minimum Humidity 82    
Precipitation  
Precipitation 0.17 in - - ()
Sea Level Pressure  
Sea Level Pressure 30.22 in    
Wind  
Wind Speed 8 mph (North)    
Max Wind Speed 14 mph    
Max Gust Speed 20 mph    
Visibility 3 miles    
Events Fog , Rain , Snow    
Averages and records for this station are not official NWS values.
T = Trace of Precipitation, MM = Missing Value Source: NWS Daily Summary

Daily Weather History Graph

Daily Weather History Graph

Search for Another Location

Airport or City:

Astronomy

Dec. 06, 2013 Rise Set
Actual Time 7:40 AM EST 5:06 PM EST
Civil Twilight 7:09 AM EST 5:36 PM EST
Nautical Twilight 6:36 AM EST 6:10 PM EST
Astronomical Twilight 6:03 AM EST 6:43 PM EST
Moon 10:44 AM EST (12/6) 9:37 PM EST (12/6)
Length of Visible Light 10h 27m
Length of Day
9h 26m
Waxing Crescent, 19% of the Moon is Illuminated
Dec 6
Waxing Crescent
Dec 9
First Quarter
Dec 17
Full
Dec 25
Last Quarter
Jan 1
New

Hourly Weather History & Observations

Time (EST) Temp. Windchill Dew Point Humidity Pressure Visibility Wind Dir Wind Speed Gust Speed Precip Events Conditions
12:53 AM 33.1 °F 27.7 °F 28.0 °F 82% 30.14 in 9.0 mi NW 5.8 mph - N/A   Overcast
1:43 AM 32.0 °F 24.8 °F 28.4 °F 87% 30.12 in 7.0 mi NNW 8.1 mph - 0.00 in   Overcast
1:53 AM 32.0 °F 24.8 °F 28.9 °F 88% 30.15 in 5.0 mi NW 8.1 mph - 0.00 in   Overcast
2:26 AM 32.0 °F 25.6 °F 28.4 °F 87% 30.13 in 5.0 mi NNW 6.9 mph - 0.00 in Rain Light Freezing Rain
2:53 AM 30.9 °F 22.2 °F 28.9 °F 92% 30.17 in 5.0 mi NNW 10.4 mph - 0.01 in Rain Light Freezing Rain
3:36 AM 30.2 °F 22.6 °F 28.4 °F 93% 30.14 in 6.0 mi North 8.1 mph - 0.01 in Rain Light Freezing Rain
3:44 AM 30.2 °F 21.9 °F 28.4 °F 93% 30.14 in 6.0 mi NNW 9.2 mph - 0.01 in   Overcast
3:53 AM 30.9 °F 23.5 °F 28.0 °F 89% 30.18 in 6.0 mi NNW 8.1 mph - 0.01 in Rain Light Freezing Rain
4:06 AM 30.2 °F 22.6 °F 28.4 °F 93% 30.17 in 5.0 mi NNW 8.1 mph - 0.01 in Rain Light Freezing Rain
4:19 AM 30.2 °F 22.6 °F 28.4 °F 93% 30.17 in 4.0 mi NNW 8.1 mph - 0.02 in Rain Light Freezing Rain
4:26 AM 30.2 °F 22.6 °F 28.4 °F 93% 30.17 in 4.0 mi NW 8.1 mph - 0.02 in Rain Light Freezing Rain
4:34 AM 30.2 °F 23.4 °F 28.4 °F 93% 30.16 in 5.0 mi NNW 6.9 mph - 0.03 in Rain Light Freezing Rain
4:53 AM 30.0 °F 22.4 °F 28.0 °F 92% 30.20 in 5.0 mi NW 8.1 mph - 0.04 in   Overcast
5:02 AM 30.2 °F 24.3 °F 26.6 °F 86% 30.17 in 6.0 mi NNW 5.8 mph - 0.01 in   Overcast
5:17 AM 30.2 °F 22.6 °F 26.6 °F 86% 30.18 in 6.0 mi NNW 8.1 mph - 0.01 in   Overcast
5:25 AM 30.2 °F 24.3 °F 26.6 °F 86% 30.18 in 6.0 mi North 5.8 mph - 0.01 in   Overcast
5:42 AM 30.2 °F 23.4 °F 26.6 °F 86% 30.18 in 7.0 mi North 6.9 mph - 0.02 in   Overcast
5:53 AM 28.9 °F 21.1 °F 27.0 °F 92% 30.20 in 7.0 mi North 8.1 mph - 0.02 in   Overcast
6:12 AM 28.4 °F 20.4 °F 26.6 °F 93% 30.17 in 7.0 mi North 8.1 mph - 0.00 in   Overcast
6:44 AM 28.4 °F 21.2 °F 26.6 °F 93% 30.18 in 6.0 mi North 6.9 mph - 0.00 in   Overcast
6:53 AM 28.9 °F 20.4 °F 26.1 °F 89% 30.20 in 6.0 mi North 9.2 mph - 0.00 in Snow Light Snow
7:53 AM 28.9 °F 21.9 °F 27.0 °F 92% 30.22 in 5.0 mi NNW 6.9 mph - 0.00 in   Overcast
8:33 AM 28.4 °F 19.7 °F 26.6 °F 93% 30.20 in 4.0 mi NNW 9.2 mph - 0.00 in   Overcast
8:53 AM 28.9 °F 21.9 °F 26.1 °F 89% 30.25 in 4.0 mi NNW 6.9 mph - 0.00 in Snow Light Snow
9:00 AM 28.4 °F 20.4 °F 26.6 °F 93% 30.20 in 2.5 mi North 8.1 mph - 0.00 in Snow Light Snow
9:18 AM 28.4 °F 22.2 °F 26.6 °F 93% 30.19 in 1.5 mi North 5.8 mph - 0.00 in Snow Light Snow
9:35 AM 28.4 °F 20.4 °F 26.6 °F 93% 30.21 in 2.0 mi North 8.1 mph - 0.00 in Snow Light Snow
9:44 AM 28.4 °F 19.7 °F 26.6 °F 93% 30.21 in 3.0 mi North 9.2 mph - 0.00 in Snow Light Snow
9:53 AM 28.9 °F 21.1 °F 27.0 °F 92% 30.23 in 3.0 mi North 8.1 mph - 0.00 in Snow Light Snow
9:59 AM 28.4 °F 23.3 °F 26.6 °F 93% 30.20 in 1.8 mi North 4.6 mph - 0.00 in Snow Light Snow
10:10 AM 28.4 °F 20.4 °F 26.6 °F 93% 30.21 in 2.0 mi North 8.1 mph - 0.01 in Snow Light Snow
10:53 AM 28.9 °F 19.2 °F 27.0 °F 92% 30.25 in 2.0 mi NNW 11.5 mph - 0.01 in Snow Light Snow
11:00 AM 28.4 °F 18.5 °F 26.6 °F 93% 30.21 in 1.0 mi North 11.5 mph - 0.00 in Snow Light Snow
11:53 AM 28.9 °F 18.6 °F 27.0 °F 92% 30.22 in 1.8 mi North 12.7 mph - 0.00 in Snow Light Snow
11:58 AM 30.2 °F 19.8 °F 26.6 °F 86% 30.20 in 2.0 mi NNW 13.8 mph - 0.00 in Snow Light Snow
12:09 PM 28.4 °F 18.5 °F 26.6 °F 93% 30.20 in 2.0 mi NNW 11.5 mph - 0.00 in Snow Light Snow
12:53 PM 28.9 °F 18.6 °F 27.0 °F 92% 30.23 in 2.0 mi North 12.7 mph - 0.01 in Snow Light Snow
1:00 PM 28.4 °F 18.0 °F 26.6 °F 93% 30.20 in 0.8 mi NNW 12.7 mph - 0.00 in Snow Light Snow
1:12 PM 28.4 °F 17.5 °F 26.6 °F 93% 30.18 in 1.0 mi North 13.8 mph 19.6 mph 0.00 in Snow Light Snow
1:53 PM 28.9 °F 20.4 °F 27.0 °F 92% 30.21 in 1.0 mi NNW 9.2 mph - 0.00 in Snow Light Snow
2:00 PM 28.4 °F 19.7 °F 26.6 °F 93% 30.18 in 0.8 mi North 9.2 mph - 0.00 in Snow Light Snow
2:53 PM 28.0 °F 18.1 °F 26.1 °F 92% 30.20 in 0.8 mi North 11.5 mph 18.4 mph 0.01 in Snow Light Snow
3:12 PM 28.4 °F 19.7 °F 26.6 °F 93% 30.18 in 0.8 mi North 9.2 mph - 0.00 in Snow Light Snow
3:31 PM 28.4 °F 19.7 °F 26.6 °F 93% 30.16 in 1.0 mi North 9.2 mph - 0.00 in Snow Light Snow
3:39 PM 28.4 °F 18.0 °F 26.6 °F 93% 30.16 in 0.5 mi North 12.7 mph - 0.00 in Fog , Snow Snow
3:53 PM 28.0 °F 18.1 °F 26.1 °F 92% 30.21 in 0.5 mi North 11.5 mph - 0.00 in Fog , Snow Snow
4:00 PM 28.4 °F 18.5 °F 26.6 °F 93% 30.19 in 0.8 mi NNW 11.5 mph - 0.01 in Snow Light Snow
4:23 PM 28.4 °F 20.4 °F 26.6 °F 93% 30.19 in 1.0 mi North 8.1 mph - 0.01 in Snow Light Snow
4:34 PM 28.4 °F 20.4 °F 26.6 °F 93% 30.21 in 0.8 mi North 8.1 mph - 0.01 in Snow Light Snow
4:53 PM 28.0 °F 18.6 °F 26.1 °F 92% 30.24 in 0.5 mi NNW 10.4 mph - 0.02 in Fog , Snow Snow
5:04 PM 28.4 °F 19.1 °F 26.6 °F 93% 30.19 in 1.0 mi North 10.4 mph - 0.00 in Snow Light Snow
5:16 PM 28.4 °F 19.1 °F 26.6 °F 93% 30.21 in 2.0 mi North 10.4 mph - 0.00 in Snow Light Snow
5:42 PM 28.4 °F 18.0 °F 26.6 °F 93% 30.21 in 3.0 mi North 12.7 mph - 0.00 in Snow Light Snow
5:49 PM 28.4 °F 18.5 °F 24.8 °F 86% 30.20 in 3.0 mi North 11.5 mph - 0.00 in Snow Light Snow
5:51 PM 28.4 °F 18.5 °F 24.8 °F 86% 30.21 in 2.5 mi North 11.5 mph - 0.00 in Snow Light Snow
5:53 PM 28.0 °F 18.6 °F 25.0 °F 88% 30.24 in 2.5 mi North 10.4 mph - 0.00 in Snow Light Snow
6:01 PM 28.4 °F 19.7 °F 24.8 °F 86% 30.21 in 1.8 mi North 9.2 mph - 0.00 in Snow Light Snow
6:51 PM 28.4 °F 19.7 °F 26.6 °F 93% 30.27 in 1.5 mi NNW 9.2 mph - 0.00 in Snow Light Snow
6:53 PM 28.0 °F 20.0 °F 26.1 °F 92% 30.31 in 1.5 mi NNW 8.1 mph - 0.00 in Snow Light Snow
7:10 PM 28.4 °F 20.4 °F 26.6 °F 93% 30.27 in 1.5 mi North 8.1 mph - 0.00 in Snow Light Snow
7:18 PM 28.4 °F 21.2 °F 26.6 °F 93% 30.26 in 1.0 mi North 6.9 mph - 0.01 in Snow Light Snow
7:22 PM 26.6 °F 18.2 °F 26.6 °F 100% 30.25 in 0.8 mi NNE 8.1 mph - 0.01 in Snow Light Snow
7:48 PM 26.6 °F 17.5 °F 24.8 °F 93% 30.27 in 0.8 mi North 9.2 mph - 0.02 in Snow Light Snow
7:53 PM 27.0 °F 18.7 °F 25.0 °F 92% 30.31 in 0.8 mi NNE 8.1 mph - 0.03 in Snow Light Snow
8:07 PM 26.6 °F 17.5 °F 24.8 °F 93% 30.26 in 1.0 mi NNE 9.2 mph - 0.00 in Snow Light Snow
8:19 PM 26.6 °F 20.0 °F 24.8 °F 93% 30.27 in 1.2 mi North 5.8 mph - 0.00 in Snow Light Snow
8:27 PM 26.6 °F 19.1 °F 24.8 °F 93% 30.28 in 1.2 mi North 6.9 mph - 0.00 in Snow Light Snow
8:53 PM 26.1 °F 18.4 °F 25.0 °F 96% 30.30 in 2.0 mi North 6.9 mph - 0.01 in Snow Light Snow
9:11 PM 26.6 °F 19.1 °F 24.8 °F 93% 30.32 in 3.0 mi NNW 6.9 mph - 0.00 in Snow Light Snow
9:20 PM 26.6 °F 20.0 °F 24.8 °F 93% 30.31 in 4.0 mi North 5.8 mph - 0.00 in Snow Light Snow
9:33 PM 26.6 °F 16.8 °F 24.8 °F 93% 30.30 in 2.0 mi North 10.4 mph - 0.00 in Snow Light Snow
9:46 PM 26.6 °F 17.5 °F 23.0 °F 86% 30.31 in 3.0 mi North 9.2 mph - 0.00 in Snow Light Snow
9:53 PM 26.1 °F 18.4 °F 23.0 °F 88% 30.35 in 4.0 mi North 6.9 mph - 0.00 in Snow Light Snow
10:08 PM 26.6 °F 19.1 °F 23.0 °F 86% 30.32 in 7.0 mi NNE 6.9 mph - 0.00 in Snow Light Snow
10:53 PM 26.1 °F 18.4 °F 23.0 °F 88% 30.37 in 3.0 mi North 6.9 mph - 0.00 in Snow Light Snow
11:53 PM 26.1 °F 18.4 °F 23.0 °F 88% 30.39 in 6.0 mi NNW 6.9 mph - 0.00 in   Overcast